(60) Echo
ephemeris date magn radius delta ra dec elong phase
Opposition28 Mar 202511.02.279 AU1.281 AU12h29m-03°36'179.4°0.3°
Today19 Apr 202511.92.324 AU1.377 AU12h12m-01°04'154.5°10.7°
(60) Echo - 2025-04-19
astro.vanbuitenen.nl


 
-1 year
-1 month
-1 day
Now
+1 day
+1 month
+1 year

The interactive orbit chart above shows the body's path through the solar system and its position at the given date. Green and blue lines are shown perpendicular to the ecliptic plane: Green if the path is above the ecliptic plane, blue if it is below. (Left-click and drag to rotate the view; Right-click and drag to move the view; Use scroll wheel to zoom in our out.)

The orbital elements of Echo are:

            e (Eccentricity)                : 0.1845002
            a (Semimajor axis)              : 2.3923459
            i (Inclination)                 : 3.60049
            Ω (Longitude of ascending node) : 191.52666
            ω (Argument of perihelion)      : 270.80955
            M (Mean anomaly)                : 74.87065
            Epoch                           : 2025 May 05

            L (Longitude of perihelion)     : 102.33781
            B (Latitude of perihelion)      : -3.60013
            P (Orbital period in years)     : 3.70            
        

The light curve chart below shows the estimated development of the minor planet's magnitude.


The all-sky chart below shows the path of the minor planet over the same period as the light curve. The current position is marked yellow.





The following chart shows the path of the minor planet in the next few days. The field of view is optimized for (~10x50) binoculars and finderscopes. A more printer-friendly version of the same chart can be found below.




Ephemerides:
Date       Time       RA (2000)    DEC (2000)    delta   radius  elong  phase   PA    magn
2025-04-19 00:00 UT   12 12 31.2   -01 04 03     1.377    2.324  154.5   10.7   114   11.9 
2025-04-19 20:00 UT   12 12 02.3   +00 59 23     1.383    2.325  153.5   11.1   114   11.9 
2025-04-20 00:00 UT   12 11 56.6   +00 58 28     1.384    2.326  153.3   11.2   114   11.9 
2025-04-21 00:00 UT   12 11 23.4   +00 53 04     1.391    2.328  152.2   11.6   114   11.9 
2025-04-22 00:00 UT   12 10 51.7   +00 47 50     1.399    2.330  151.0   12.1   114   11.9 
2025-04-23 00:00 UT   12 10 21.5   +00 42 48     1.407    2.332  149.9   12.5   114   12.0 
2025-04-24 00:00 UT   12 09 52.9   +00 37 58     1.415    2.334  148.8   12.9   114   12.0 
2025-04-25 00:00 UT   12 09 25.7   +00 33 18     1.423    2.336  147.7   13.3   114   12.0 
2025-04-26 00:00 UT   12 09 00.2   +00 28 51     1.432    2.338  146.6   13.7   114   12.1 
2025-04-27 00:00 UT   12 08 36.3   +00 24 35     1.440    2.340  145.5   14.1   114   12.1 
2025-04-28 00:00 UT   12 08 13.9   +00 20 32     1.449    2.342  144.4   14.5   114   12.1 
2025-04-29 00:00 UT   12 07 53.2   +00 16 40     1.458    2.345  143.3   14.9   114   12.1 
2025-04-30 00:00 UT   12 07 34.2   +00 13 01     1.468    2.347  142.3   15.2   114   12.2 
2025-05-01 00:00 UT   12 07 16.8   +00 09 34     1.477    2.349  141.2   15.6   114   12.2 
2025-05-02 00:00 UT   12 07 01.0   +00 06 19     1.487    2.351  140.1   15.9   114   12.2 
2025-05-03 00:00 UT   12 06 46.9   +00 03 17     1.496    2.353  139.1   16.3   114   12.3 
2025-05-04 00:00 UT   12 06 34.5   +00 00 26     1.506    2.355  138.1   16.6   114   12.3 
2025-05-05 00:00 UT   12 06 23.8   +00 02 11     1.517    2.357  137.0   17.0   114   12.3 
2025-05-06 00:00 UT   12 06 14.6   +00 04 37     1.527    2.359  136.0   17.3   114   12.3 
2025-05-07 00:00 UT   12 06 07.2   +00 06 50     1.537    2.361  135.0   17.6   114   12.4 
2025-05-08 00:00 UT   12 06 01.4   +00 08 51     1.548    2.363  134.0   17.9   114   12.4 
2025-05-09 00:00 UT   12 05 57.2   +00 10 40     1.559    2.365  133.0   18.2   114   12.4 
2025-05-10 00:00 UT   12 05 54.6   +00 12 17     1.570    2.367  132.0   18.5   114   12.5 
2025-05-11 00:00 UT   12 05 53.6   +00 13 42     1.581    2.369  131.0   18.8   114   12.5 
2025-05-12 00:00 UT   12 05 54.3   +00 14 55     1.592    2.372  130.1   19.0   114   12.5 
2025-05-13 00:00 UT   12 05 56.5   +00 15 57     1.603    2.374  129.1   19.3   114   12.5 
2025-05-14 00:00 UT   12 06 00.3   +00 16 47     1.615    2.376  128.2   19.5   114   12.6 
2025-05-15 00:00 UT   12 06 05.7   +00 17 25     1.626    2.378  127.2   19.8   114   12.6 
2025-05-16 00:00 UT   12 06 12.6   +00 17 52     1.638    2.380  126.3   20.0   114   12.6 
2025-05-17 00:00 UT   12 06 21.0   +00 18 08     1.650    2.382  125.3   20.3   114   12.6 
2025-05-18 00:00 UT   12 06 31.0   +00 18 12     1.662    2.384  124.4   20.5   114   12.7 
2025-05-19 00:00 UT   12 06 42.5   +00 18 06     1.674    2.386  123.5   20.7   114   12.7 


    Terminology:
            
    delta:  distance between minor planet and earth in AU
    radius: distance between minor planet and sun in AU
    magn:   magnitude (brightness) estimate    
    ra:     right ascension in hours (24h = 360deg)
    dec:    declination in degrees
    elong:  elongation in degrees (angle sun-earth-minor planet)    
    phase:  phase angle in degrees (angle sun-minor planet-earth)        
    AU:     Astronomical Unit (mean distance between earth and sun: 149597870.7 km
    

Orbital elements provided by the MPC (Minor Planet Center).
Calculations by a modified version of AAPlus, a C# implementation of the AA+ project by PJ Naughter from the algorithms presented in the book "Astronomical Algorithms" by Jean Meeus.
NGC2000 dso catalog and star labels from VizieR as provided by the Strasbourg astronomical Data Center.
Tycho2 catalog from the ESO archive.